Regional Weather Roundup
Issued by NWS

Home | Current Version | Previous Version | Text Only | Print | Product List | Glossary Off
Versions: 1 2 3 4 5 6 7 8 9 10 11 12 13 14 15 16 17 18 19 20 21 22 23 24 25 26 27 28 29 30 31 32 33 34 35 36 37 38 39 40 41 42 43 44 45 46 47 48 49 50

000
ASUS43 KLOT 171510
RWRIL

ILLINOIS REGIONAL WEATHER ROUNDUP
NATIONAL WEATHER SERVICE CHICAGO/ROMEOVILLE IL
1000 AM CDT WED SEP 17 2014

NOTE: "FAIR" INDICATES FEW OR NO CLOUDS BELOW 12,000 FEET WITH NO
SIGNIFICANT WEATHER AND/OR OBSTRUCTIONS TO VISIBILITY.

* THESE STATIONS ARE NOT UNDER NWS QUALITY CONTROL. THEY ALSO MAY NOT
  REPORT WEATHER SUCH AS PRECIPITATION OR FOG.

ILZ001-002-007-009-015-016-024-171600-
NORTHWEST ILLINOIS

CITY           SKY/WX    TMP DP  RH WIND       PRES   REMARKS
MOLINE         CLOUDY    60  52  74 SW3       30.02R
STERLING*      SUNNY     63  54  72 W3        30.03S
SAVANNA*       CLOUDY    58  49  73 CALM      30.03R
$$

ILZ003-004-008-010-011-017-018-171600-
NORTH CENTRAL ILLINOIS

CITY           SKY/WX    TMP DP  RH WIND       PRES   REMARKS
ROCKFORD       PTSUNNY   58  48  69 S3        30.05F
FREEPORT*      CLOUDY    57  52  83 CALM      30.04S
ROCHELLE*      SUNNY     60  47  61 S3        30.04S
DE KALB*       MOSUNNY   58  47  65 S3        30.04F
PERU*          SUNNY     60  51  70 CALM      30.04S
$$

ILZ005-006-012>014-019>023-171600-
NORTHEAST ILLINOIS

CITY           SKY/WX    TMP DP  RH WIND       PRES   REMARKS
CHICAGO-OHARE  MOSUNNY   60  45  57 VRB5      30.03F
CHICAGO-MIDWAY MOSUNNY   64  46  52 CALM      30.03F
AURORA         SUNNY     60  47  61 CALM      30.04F
LANSING*       SUNNY     60  51  73 CALM      30.04S
JOLIET*        SUNNY     59  47  64 CALM      30.05R
WAUKEGAN       SUNNY     62  45  53 VRB5      30.02F
DUPAGE AIRPORT SUNNY     61  46  57 SW5       30.03F
KANKAKEE*      SUNNY     58  53  82 CALM      30.05S
WHEELING       SUNNY     62  46  55 SW3       30.04F
MORRIS*        SUNNY     59  51  73 CALM      30.04S
ROMEOVILLE*    SUNNY     60  48  65 CALM      30.04S
NORTHERLY ISL    N/A     63  44  50 W7          N/A
$$

LMZ740>746-171600-
SOUTHERN LAKE MICHIGAN

STATION/POSITION SKY/WX   TEMP    WIND        PRES    VSBY  WAVE
                          AIR SEA DIR/SP/G                  HT/PER
                          (F)     (DEG/KT/KT) (MB)    (MI)  (FT/S)
SOUTHERN BUOY              61 65  260/  8/ 10 1016.9F         1/ 3
WAUKEGAN HARBOR            60     240/  5/  6   N/A
HARRISON CRIB              59     260/  5/  6   N/A
BURNHAM HARBOR             63     250/  5/  7   N/A
CALUMET HARBOR             61     210/  3/  5 1015.8S
MICHIGAN CITY              59     190/  2/  3   N/A
MICHIGAN CITY 6N           59 65  210/  4/  6   N/A           1
ST. JOSEPH                 59 66  180/  6/  8   N/A           1/ 3
$$

ILZ025>027-034>036-040-047-049-050-058-095>099-171600-
WEST-CENTRAL ILLINOIS

CITY           SKY/WX    TMP DP  RH WIND       PRES   REMARKS
QUINCY         CLOUDY    58  53  84 SE8       30.02R
GALESBURG*     CLOUDY    57  54  89 SE5       30.03R
MACOMB*        CLOUDY    56  54  94 S3        30.05S
JACKSONVILLE*  MOSUNNY   62  54  76 S5        30.05S
PITTSFIELD*    CLOUDY    57  53  89 S6        30.05R
$$

ILZ028>032-037-038-041>044-048-051>054-059>061-171600-
CENTRAL ILLINOIS

CITY           SKY/WX    TMP DP  RH WIND       PRES   REMARKS
PONTIAC        SUNNY     61  52  72 CALM      30.03S
DECATUR        PTSUNNY   60  53  77 S3        30.06R
PEORIA         CLOUDY    59  52  77 S7        30.05R
LACON*         PTSUNNY   59  53  79 CALM      30.03S
LINCOLN*       CLOUDY    59  54  82 SW3       30.03R
SPRINGFIELD    CLOUDY    60  53  77 S5        30.06R
TAYLORVILLE    CLOUDY    57  54  88 S6        30.05S
$$

ILZ033-039-045-046-055>057-062-063-171600-
EAST-CENTRAL ILLINOIS

CITY           SKY/WX    TMP DP  RH WIND       PRES   REMARKS
CHAMPAIGN      MOSUNNY   61  54  77 CALM      30.06R
DANVILLE*      SUNNY     59  53  79 CALM      30.03R
RANTOUL*       MOSUNNY   61  52  72 CALM      30.05F
MATTOON        MOSUNNY   60  53  77 S5        30.04R
PARIS*         SUNNY     61  55  82 CALM      30.06R
$$

ILZ079-100>102-171600-
SOUTHWEST ILLINOIS

CITY           SKY/WX    TMP DP  RH WIND       PRES   REMARKS
ALTON          CLOUDY    59  54  82 S12       30.07R
BELLEVILLE     PTSUNNY   58  56  92 VRB1      30.08R
CAHOKIA*       LGT RAIN  59  54  83 S6        30.06R
SPARTA*        CLOUDY    56  53  86 SE5       30.06S
$$

ILZ064>066-069>071-074>076-080>082-084>086-088>090-092>094-171600-
SOUTH-CENTRAL ILLINOIS

CITY           SKY/WX    TMP DP  RH WIND       PRES   REMARKS
CARBONDALE     PTSUNNY   59  53  80 SE5       30.06R
CAIRO*         CLOUDY    62  59  92 E3        30.05F
EFFINGHAM*     HVY RAIN  59  52  77 S5        30.06R
MARION         PTSUNNY   59  55  88 S6        30.07S
MT. VERNON     MOSUNNY   59  52  77 S5        30.08R
CENTRALIA*     MOSUNNY   58  51  78 SE5       30.07R
SALEM*         MOSUNNY   60  55  83 CALM      30.06R
METROPOLIS*    PTSUNNY   62  56  80 E3        30.05R
$$

ILZ067-068-072-073-078-083-087-091-171600-
SOUTHEAST ILLINOIS

CITY           SKY/WX    TMP DP  RH WIND       PRES   REMARKS
LAWRENCEVILLE  SUNNY     61  53  75 E3        30.06F
FLORA*         SUNNY     58  53  83 E3        30.07R
FAIRFIELD*     SUNNY    N/A N/A N/A E3        30.06R
HARRISBURG*    MOSUNNY   56  56 100 CALM      30.07R
ROBINSON*      SUNNY     61  56  84 SE5       30.07S
CARMI*         SUNNY     63  56  79 E7        30.05S
$$

ABBREVIATIONS USED IN REMARKS
   TC - TEMPERATURE IN CELSIUS
  WCI - WIND CHILL INDEX
   HX - HEAT INDEX
  VSB - VISIBILITY
$$



USA.gov is the U.S. government's official web portal to all federal, state and local government web resources and services.